Hourly Weather Roundup
Issued by NWS Central Illinois

Home | Current Version | Previous Version | Text Only | Print | Product List | Glossary On
Versions: 1 2 3 4 5 6 7 8 9 10 11 12 13 14 15 16 17 18 19 20 21 22 23 24 25 26 27 28 29 30 31 32 33 34 35 36 37 38 39 40 41 42 43 44 45 46 47 48 49 50
000
NZUS43 KILX 130610
HWRILX

AREA WEATHER ROUNDUP
NATIONAL WEATHER SERVICE, LINCOLN IL
1200 AM CST SAT FEB 13 2016


CITY           SKY/WX    TMP DP  RH WIND       PRES   REMARKS
BLOOMINGTON    CLEAR     10   2  70 NW10      30.49R WCI  -4
6HR MIN TEMP:  10; 6HR MAX TEMP:  20;

CHAMPAIGN      CLEAR     13   3  64 NW16      30.46R WCI  -3
6HR MIN TEMP:  13; 6HR MAX TEMP:  22;

DANVILLE       CLEAR     12   1  61 NW13      30.41R WCI  -3
6HR MIN TEMP:  12; 6HR MAX TEMP:  23;

DECATUR        CLEAR     13   2  61 NW13      30.50R WCI  -2
6HR MIN TEMP:  13; 6HR MAX TEMP:  24;

EFFINGHAM      CLEAR     17   7  65 NW14      30.51R WCI   3
FLORA          CLEAR     20   6  55 NW13G18   30.50R WCI   7
6HR MIN TEMP:  20; 6HR MAX TEMP:  27;

GALESBURG      CLOUDY     8  -1  66 NW13G18   30.54S WCI  -8
JACKSONVILLE   CLEAR     15   4  62 NW13G22   30.56R WCI   1
6HR MIN TEMP:  15; 6HR MAX TEMP:  25;

LACON          CLEAR     10  -4  52 NW16      30.53R WCI  -7
6HR MIN TEMP:  10; 6HR MAX TEMP:  18;

LAWRENCEVILLE  CLEAR     18   5  57 N16       30.47R WCI   3
6HR MIN TEMP:  18; 6HR MAX TEMP:  27;

LITCHFIELD     CLEAR     14   4  63 N18       30.52R WCI  -3
$$


CITY           SKY/WX    TMP DP  RH WIND       PRES   REMARKS
LINCOLN        CLEAR     12   2  64 NW9       30.53R WCI   0
6HR MIN TEMP:  12; 6HR MAX TEMP:  23;

MACOMB         CLOUDY    10   2  68 NW17G23   30.59R WCI  -7
MATTOON        CLEAR     13   3  64 NW17      30.47R WCI  -4
6HR MIN TEMP:  13; 6HR MAX TEMP:  23;

MT CARMEL AP   CLEAR     19   5  53 NW15G21   30.46R WCI   5
OLNEY-NOBLE AP CLEAR     19   5  53 NW16      30.49R WCI   5
PARIS          CLEAR     14   6  70 NW14G21   30.46R WCI  -1
6HR MIN TEMP:  14; 6HR MAX TEMP:  24;

PEORIA         CLEAR     10  -2  58 NW7       30.54R WCI  -1
6HR MIN TEMP:  10; 6HR MAX TEMP:  19;

PONTIAC        PTCLDY    12  -1  57 NW15      30.50R WCI  -4
RANTOUL        CLEAR     14   5  69 NW12      30.46R WCI   0
6HR MIN TEMP:  14; 6HR MAX TEMP:  24;

ROBINSON       CLEAR     16   6  65 NW13      30.48R WCI   2
6HR MIN TEMP:  16; 6HR MAX TEMP:  26;

SPRINGFIELD    CLEAR     14  -1  51 N12       30.54R WCI   0
6HR MIN TEMP:  14; 6HR MAX TEMP:  24;

TAYLORVILLE    CLEAR     14   3  62 N16       30.53R WCI  -2
$$

...REGIONAL REPORTS...


CITY           SKY/WX    TMP DP  RH WIND       PRES   REMARKS
CHICAGO O`HARE PTCLDY     7  -8  50 NW18      30.47R WCI -12
KANKAKEE       PTCLDY    10  -7  44 N14G20    30.47R WCI  -5
MOLINE         CLEAR      9  -4  55 NW12      30.57R WCI  -6
MOUNT STERLING PTCLDY    10   1  67 NW10G17   30.56R WCI  -4
MOUNT VERNON   CLEAR     19   5  53 N3        30.50R
PITTSFIELD     PTCLDY    13   4  67 NW14      30.57S WCI  -2
QUINCY         CLEAR     10   0  63 NW13      30.57R WCI  -5
ROCKFORD       CLEAR      7  -8  50 N16       30.53R WCI -11
$$


CITY           SKY/WX    TMP DP  RH WIND       PRES   REMARKS
BURLINGTON     CLOUDY     9   0  67 NW10      30.58R WCI  -5
CEDAR RAPIDS   CLEAR      5  -4  66 NW12      30.57S WCI -11
DES MOINES     CLEAR      5  -3  69 N7        30.64R WCI  -7
KIRKSVILLE     CLOUDY    10   1  67 N9        30.59S WCI  -3
OTTUMWA        CLOUDY     6   0  76 NW12      30.62R WCI  -9
ST LOUIS       CLEAR     18   3  52 N16G23    30.54R WCI   3
$$


CITY           SKY/WX    TMP DP  RH WIND       PRES   REMARKS
TERRE HAUTE    CLEAR     16   4  59 NW13G21   30.44R WCI   2
EVANSVILLE     PTCLDY    23   5  46 N16G23    30.46R WCI  10
INDIANAPOLIS   PTCLDY    15   0  51 NW15      30.36R WCI   0
LAFAYETTE      CLEAR     12  -4  48 NW13G21   30.42R WCI  -3
MADISON        CLEAR      2 -14  47 NW8       30.50R WCI -12
MILWAUKEE      CLEAR      3 -13  47 NW13G21   30.47R WCI -14
$$





USA.gov is the U.S. government's official web portal to all federal, state and local government web resources and services.